owner,sensor,date,latitude,longitude,vertical_datum,direction_of_sea_water_velocity,sea_water_speed,upward_sea_water_velocity,qcFlag 
TABS,ioos:station:wmo:42045:1,2006-12-01T00:00:00Z,26.2168,-96.4998,2.0,10.40500262,47.67393628,-99999.0,'11111222,11111222,99999999' 
TABS,ioos:station:wmo:42045:1,2006-12-01T00:30:00Z,26.2168,-96.4998,2.0,19.45833831,33.29144335,-99999.0,'11111222,11111222,99999999' 
TABS,ioos:station:wmo:42045:1,2006-12-01T01:00:00Z,26.2168,-96.4998,2.0,24.26288126,35.84627317,-99999.0,'11111222,11111222,99999999' 
TABS,ioos:station:wmo:42045:1,2006-12-01T01:30:00Z,26.2168,-96.4998,2.0,351.9023206,27.68606328,-99999.0,'11111222,11111222,99999999' 
TABS,ioos:station:wmo:42045:1,2006-12-01T02:00:00Z,26.2168,-96.4998,2.0,11.01588744,42.39106156,-99999.0,'11111222,11111222,99999999' 
TABS,ioos:station:wmo:42045:1,2006-12-01T02:30:00Z,26.2168,-96.4998,2.0,19.45540109,45.99629659,-99999.0,'11111222,11111222,99999999' 
TABS,ioos:station:wmo:42045:1,2006-12-01T03:00:00Z,26.2168,-96.4998,2.0,16.82038466,21.32221846,-99999.0,'11111222,11111222,99999999' 
TABS,ioos:station:wmo:42045:1,2006-12-01T03:30:00Z,26.2168,-96.4998,2.0,11.06708233,25.89148509,-99999.0,'11111222,11111222,99999999' 
TABS,ioos:station:wmo:42045:1,2006-12-01T04:00:00Z,26.2168,-96.4998,2.0,13.08052687,46.08575702,-99999.0,'11111222,11111222,99999999' 
TABS,ioos:station:wmo:42045:1,2006-12-01T04:30:00Z,26.2168,-96.4998,2.0,13.58501021,40.01962019,-99999.0,'11111222,11111222,99999999' 
TABS,ioos:station:wmo:42045:1,2006-12-01T05:00:00Z,26.2168,-96.4998,2.0,23.13520108,36.70148362,-99999.0,'11111222,11111222,99999999' 
TABS,ioos:station:wmo:42045:1,2006-12-01T05:30:00Z,26.2168,-96.4998,2.0,5.207937085,31.17870106,-99999.0,'11111222,11111222,99999999' 
TABS,ioos:station:wmo:42045:1,2006-12-01T06:00:00Z,26.2168,-96.4998,2.0,1.607833113,39.56557342,-99999.0,'11111222,11111222,99999999' 
TABS,ioos:station:wmo:42045:1,2006-12-01T06:30:00Z,26.2168,-96.4998,2.0,8.17460597,36.57157366,-99999.0,'11111222,11111222,99999999' 
TABS,ioos:station:wmo:42045:1,2006-12-01T07:30:00Z,26.2168,-96.4998,2.0,337.0439566,16.76798139,-99999.0,'11111222,11111222,99999999' 
TABS,ioos:station:wmo:42045:1,2006-12-01T08:00:00Z,26.2168,-96.4998,2.0,28.49028193,44.46471073,-99999.0,'11111222,11111222,99999999' 
TABS,ioos:station:wmo:42045:1,2006-12-01T08:30:00Z,26.2168,-96.4998,2.0,30.81860968,40.58012568,-99999.0,'11111222,11111222,99999999' 
TABS,ioos:station:wmo:42045:1,2006-12-01T09:00:00Z,26.2168,-96.4998,2.0,20.4409526,29.09180641,-99999.0,'11111222,11111222,99999999' 
TABS,ioos:station:wmo:42045:1,2006-12-01T09:30:00Z,26.2168,-96.4998,2.0,26.8822245,17.78148475,-99999.0,'11111222,11111222,99999999' 
TABS,ioos:station:wmo:42045:1,2006-12-01T10:30:00Z,26.2168,-96.4998,2.0,21.32055971,15.70480818,-99999.0,'11111222,11111222,99999999' 
TABS,ioos:station:wmo:42045:1,2006-12-01T11:00:00Z,26.2168,-96.4998,2.0,35.99550533,27.6492206,-99999.0,'11111222,11111222,99999999' 
TABS,ioos:station:wmo:42045:1,2006-12-01T12:00:00Z,26.2168,-96.4998,2.0,54.77717809,10.36828337,-99999.0,'11111222,11111222,99999999' 
TABS,ioos:station:wmo:42045:1,2006-12-01T12:30:00Z,26.2168,-96.4998,2.0,18.51654053,13.35114976,-99999.0,'11111222,11111222,99999999' 
TABS,ioos:station:wmo:42045:1,2006-12-01T13:00:00Z,26.2168,-96.4998,2.0,24.68058404,23.66145389,-99999.0,'11111222,11111222,99999999' 
TABS,ioos:station:wmo:42045:1,2006-12-01T13:30:00Z,26.2168,-96.4998,2.0,6.970795121,18.8694727,-99999.0,'11111222,11111222,99999999' 
TABS,ioos:station:wmo:42045:1,2006-12-01T14:00:00Z,26.2168,-96.4998,2.0,51.00389805,12.23642513,-99999.0,'11111222,11111222,99999999' 
TABS,ioos:station:wmo:42045:1,2006-12-01T14:30:00Z,26.2168,-96.4998,2.0,23.77129594,15.50543776,-99999.0,'11111222,11111222,99999999' 
TABS,ioos:station:wmo:42045:1,2006-12-01T15:00:00Z,26.2168,-96.4998,2.0,4.592153102,8.868466609,-99999.0,'11133222,11111222,99999999' 
TABS,ioos:station:wmo:42045:1,2006-12-01T15:30:00Z,26.2168,-96.4998,2.0,70.81693177,17.19476955,-99999.0,'11111222,11111222,99999999' 
TABS,ioos:station:wmo:42045:1,2006-12-01T16:00:00Z,26.2168,-96.4998,2.0,110.6703947,7.620564284,-99999.0,'11133222,11111222,99999999' 
TABS,ioos:station:wmo:42045:1,2006-12-01T16:30:00Z,26.2168,-96.4998,2.0,91.12513808,6.111178282,-99999.0,'11133222,11111222,99999999' 
TABS,ioos:station:wmo:42045:1,2006-12-01T17:00:00Z,26.2168,-96.4998,2.0,97.05883846,5.370707588,-99999.0,'11133222,11111222,99999999' 
TABS,ioos:station:wmo:42045:1,2006-12-01T17:30:00Z,26.2168,-96.4998,2.0,59.62463351,13.86296144,-99999.0,'11111222,11111222,99999999' 
TABS,ioos:station:wmo:42045:1,2006-12-01T18:00:00Z,26.2168,-96.4998,2.0,197.084008,9.122543505,-99999.0,'11133222,11111222,99999999' 
TABS,ioos:station:wmo:42045:1,2006-12-01T18:30:00Z,26.2168,-96.4998,2.0,133.4208663,26.94392882,-99999.0,'11111222,11111222,99999999' 
TABS,ioos:station:wmo:42045:1,2006-12-01T19:00:00Z,26.2168,-96.4998,2.0,123.8283977,27.55481265,-99999.0,'11111222,11111222,99999999' 
TABS,ioos:station:wmo:42045:1,2006-12-01T19:30:00Z,26.2168,-96.4998,2.0,113.1555722,12.25745895,-99999.0,'11111222,11111222,99999999' 
TABS,ioos:station:wmo:42045:1,2006-12-01T20:00:00Z,26.2168,-96.4998,2.0,143.2930583,16.86406831,-99999.0,'11111222,11111222,99999999' 
TABS,ioos:station:wmo:42045:1,2006-12-01T20:30:00Z,26.2168,-96.4998,2.0,154.6251274,21.95845395,-99999.0,'11111222,11111222,99999999' 
TABS,ioos:station:wmo:42045:1,2006-12-01T21:00:00Z,26.2168,-96.4998,2.0,155.3498823,23.01752376,-99999.0,'11111222,11111222,99999999' 
TABS,ioos:station:wmo:42045:1,2006-12-01T21:30:00Z,26.2168,-96.4998,2.0,99.53403168,21.01020704,-99999.0,'11111222,11111222,99999999' 
TABS,ioos:station:wmo:42045:1,2006-12-01T22:00:00Z,26.2168,-96.4998,2.0,127.5143448,27.7357549,-99999.0,'11111222,11111222,99999999' 
TABS,ioos:station:wmo:42045:1,2006-12-01T22:30:00Z,26.2168,-96.4998,2.0,124.8268459,16.77466244,-99999.0,'11111222,11111222,99999999' 
TABS,ioos:station:wmo:42045:1,2006-12-01T23:00:00Z,26.2168,-96.4998,2.0,103.2175118,24.27301794,-99999.0,'11111222,11111222,99999999' 
TABS,ioos:station:wmo:42045:1,2006-12-01T23:30:00Z,26.2168,-96.4998,2.0,155.7395379,22.46382203,-99999.0,'11111222,11111222,99999999' 
TABS,ioos:station:wmo:42045:1,2006-12-02T00:00:00Z,26.2168,-96.4998,2.0,99.71322831,5.630719315,-99999.0,'11133222,11111222,99999999' 
TABS,ioos:station:wmo:42045:1,2006-12-02T00:30:00Z,26.2168,-96.4998,2.0,147.5535339,10.60559286,-99999.0,'11111222,11111222,99999999' 
TABS,ioos:station:wmo:42045:1,2006-12-02T01:00:00Z,26.2168,-96.4998,2.0,141.8291231,4.757226082,-99999.0,'11133222,11111222,99999999' 
TABS,ioos:station:wmo:42045:1,2006-12-02T01:30:00Z,26.2168,-96.4998,2.0,152.2163208,13.88017651,-99999.0,'11111222,11111222,99999999' 
TABS,ioos:station:wmo:42045:1,2006-12-02T02:00:00Z,26.2168,-96.4998,2.0,157.0612191,12.44403873,-99999.0,'11111222,11111222,99999999' 
TABS,ioos:station:wmo:42045:1,2006-12-02T02:30:00Z,26.2168,-96.4998,2.0,86.08330317,15.22556075,-99999.0,'11111222,11111222,99999999' 
TABS,ioos:station:wmo:42045:1,2006-12-02T03:00:00Z,26.2168,-96.4998,2.0,99.03693674,10.18644197,-99999.0,'11111222,11111222,99999999' 
TABS,ioos:station:wmo:42045:1,2006-12-02T03:30:00Z,26.2168,-96.4998,2.0,44.92963092,5.74878248,-99999.0,'11133222,11111222,99999999' 
TABS,ioos:station:wmo:42045:1,2006-12-02T04:00:00Z,26.2168,-96.4998,2.0,70.98046513,9.29758033,-99999.0,'11133222,11111222,99999999' 
TABS,ioos:station:wmo:42045:1,2006-12-02T04:30:00Z,26.2168,-96.4998,2.0,122.9539334,9.283673842,-99999.0,'11133222,11111222,99999999' 
TABS,ioos:station:wmo:42045:1,2006-12-02T05:00:00Z,26.2168,-96.4998,2.0,50.31943055,5.873065639,-99999.0,'11133222,11111222,99999999' 
TABS,ioos:station:wmo:42045:1,2006-12-02T05:30:00Z,26.2168,-96.4998,2.0,66.41896159,7.474128712,-99999.0,'11133222,11111222,99999999' 
TABS,ioos:station:wmo:42045:1,2006-12-02T06:00:00Z,26.2168,-96.4998,2.0,20.08049913,7.048460825,-99999.0,'11133222,11111222,99999999' 
TABS,ioos:station:wmo:42045:1,2006-12-02T06:30:00Z,26.2168,-96.4998,2.0,14.01456922,6.359284551,-99999.0,'11133222,11111222,99999999' 
TABS,ioos:station:wmo:42045:1,2006-12-02T07:00:00Z,26.2168,-96.4998,2.0,49.04122596,9.732774527,-99999.0,'11133222,11111222,99999999' 
TABS,ioos:station:wmo:42045:1,2006-12-02T07:30:00Z,26.2168,-96.4998,2.0,346.3774308,4.033472449,-99999.0,'11133222,11111222,99999999' 
TABS,ioos:station:wmo:42045:1,2006-12-02T08:00:00Z,26.2168,-96.4998,2.0,76.69411187,5.518133742,-99999.0,'11133222,11111222,99999999' 
TABS,ioos:station:wmo:42045:1,2006-12-02T08:30:00Z,26.2168,-96.4998,2.0,56.35993484,9.549167503,-99999.0,'11133222,11111222,99999999' 
TABS,ioos:station:wmo:42045:1,2006-12-02T09:00:00Z,26.2168,-96.4998,2.0,25.71912279,2.120023585,-99999.0,'11133222,11111222,99999999' 
TABS,ioos:station:wmo:42045:1,2006-12-02T09:30:00Z,26.2168,-96.4998,2.0,62.64183117,8.399476174,-99999.0,'11133222,11111222,99999999' 
TABS,ioos:station:wmo:42045:1,2006-12-02T10:00:00Z,26.2168,-96.4998,2.0,114.8110463,14.46519271,-99999.0,'11111222,11111222,99999999' 
TABS,ioos:station:wmo:42045:1,2006-12-02T10:30:00Z,26.2168,-96.4998,2.0,91.89196099,3.331816321,-99999.0,'11133222,11111222,99999999' 
TABS,ioos:station:wmo:42045:1,2006-12-02T11:00:00Z,26.2168,-96.4998,2.0,243.4070837,9.315460268,-99999.0,'11133222,11111222,99999999' 
TABS,ioos:station:wmo:42045:1,2006-12-02T11:30:00Z,26.2168,-96.4998,2.0,87.79012889,9.07675052,-99999.0,'11133222,11111222,99999999' 
TABS,ioos:station:wmo:42045:1,2006-12-02T12:00:00Z,26.2168,-96.4998,2.0,146.9759992,0.477074418,-99999.0,'11133222,11111222,99999999' 
TABS,ioos:station:wmo:42045:1,2006-12-02T12:30:00Z,26.2168,-96.4998,2.0,86.74358622,5.809380346,-99999.0,'11133222,11111222,99999999' 
TABS,ioos:station:wmo:42045:1,2006-12-02T13:00:00Z,26.2168,-96.4998,2.0,75.58198312,5.823409654,-99999.0,'11133222,11111222,99999999' 
TABS,ioos:station:wmo:42045:1,2006-12-02T13:30:00Z,26.2168,-96.4998,2.0,97.18346461,12.15541032,-99999.0,'11111222,11111222,99999999' 
TABS,ioos:station:wmo:42045:1,2006-12-02T14:00:00Z,26.2168,-96.4998,2.0,90.71171054,8.050621094,-99999.0,'11133222,11111222,99999999' 
TABS,ioos:station:wmo:42045:1,2006-12-02T14:30:00Z,26.2168,-96.4998,2.0,104.0534269,8.071585966,-99999.0,'11133222,11111222,99999999' 
TABS,ioos:station:wmo:42045:1,2006-12-02T15:00:00Z,26.2168,-96.4998,2.0,79.97935072,5.22978011,-99999.0,'11133222,11111222,99999999' 
TABS,ioos:station:wmo:42045:1,2006-12-02T15:30:00Z,26.2168,-96.4998,2.0,60.76857636,3.46070802,-99999.0,'11133222,11111222,99999999' 
TABS,ioos:station:wmo:42045:1,2006-12-02T16:00:00Z,26.2168,-96.4998,2.0,17.87341215,9.67703467,-99999.0,'11133222,11111222,99999999' 
TABS,ioos:station:wmo:42045:1,2006-12-02T16:30:00Z,26.2168,-96.4998,2.0,29.10907243,6.1462997,-99999.0,'11133222,11111222,99999999' 
TABS,ioos:station:wmo:42045:1,2006-12-02T17:00:00Z,26.2168,-96.4998,2.0,80.28005338,10.60219789,-99999.0,'11111222,11111222,99999999' 
TABS,ioos:station:wmo:42045:1,2006-12-02T17:30:00Z,26.2168,-96.4998,2.0,92.31488495,19.80616318,-99999.0,'11111222,11111222,99999999' 
TABS,ioos:station:wmo:42045:1,2006-12-02T18:00:00Z,26.2168,-96.4998,2.0,121.2533462,6.784570731,-99999.0,'11133222,11111222,99999999' 
TABS,ioos:station:wmo:42045:1,2006-12-02T18:30:00Z,26.2168,-96.4998,2.0,100.8384194,12.86957653,-99999.0,'11111222,11111222,99999999' 
TABS,ioos:station:wmo:42045:1,2006-12-02T19:00:00Z,26.2168,-96.4998,2.0,67.46000537,3.313080138,-99999.0,'11133222,11111222,99999999' 
TABS,ioos:station:wmo:42045:1,2006-12-02T19:30:00Z,26.2168,-96.4998,2.0,76.17765408,13.64514932,-99999.0,'11111222,11111222,99999999' 
TABS,ioos:station:wmo:42045:1,2006-12-02T20:00:00Z,26.2168,-96.4998,2.0,116.3088254,9.002499653,-99999.0,'11133222,11111222,99999999' 
TABS,ioos:station:wmo:42045:1,2006-12-02T20:30:00Z,26.2168,-96.4998,2.0,142.576032,10.13647375,-99999.0,'11111222,11111222,99999999' 
TABS,ioos:station:wmo:42045:1,2006-12-02T21:00:00Z,26.2168,-96.4998,2.0,340.8047877,1.429475428,-99999.0,'11133222,11111222,99999999' 
TABS,ioos:station:wmo:42045:1,2006-12-02T21:30:00Z,26.2168,-96.4998,2.0,107.557896,8.883878657,-99999.0,'11133222,11111222,99999999' 
TABS,ioos:station:wmo:42045:1,2006-12-02T22:00:00Z,26.2168,-96.4998,2.0,90.04133884,13.86000361,-99999.0,'11111222,11111222,99999999' 
TABS,ioos:station:wmo:42045:1,2006-12-02T22:30:00Z,26.2168,-96.4998,2.0,134.6568112,9.447115962,-99999.0,'11133222,11111222,99999999' 
TABS,ioos:station:wmo:42045:1,2006-12-02T23:00:00Z,26.2168,-96.4998,2.0,109.5036551,8.985594026,-99999.0,'11133222,11111222,99999999' 
TABS,ioos:station:wmo:42045:1,2006-12-02T23:30:00Z,26.2168,-96.4998,2.0,119.676206,14.50215156,-99999.0,'11111222,11111222,99999999' 
TABS,ioos:station:wmo:42045:1,2006-12-03T00:00:00Z,26.2168,-96.4998,2.0,155.7104422,8.897623278,-99999.0,'11133222,11111222,99999999' 
TABS,ioos:station:wmo:42045:1,2006-12-03T00:30:00Z,26.2168,-96.4998,2.0,139.8235417,3.363599263,-99999.0,'11133222,11111222,99999999' 
TABS,ioos:station:wmo:42045:1,2006-12-03T01:00:00Z,26.2168,-96.4998,2.0,163.1641502,8.044805778,-99999.0,'11133222,11111222,99999999' 
TABS,ioos:station:wmo:42045:1,2006-12-03T01:30:00Z,26.2168,-96.4998,2.0,94.12438412,7.369084068,-99999.0,'11133222,11111222,99999999' 
TABS,ioos:station:wmo:42045:1,2006-12-03T02:00:00Z,26.2168,-96.4998,2.0,109.6163509,7.208363198,-99999.0,'11133222,11111222,99999999' 
TABS,ioos:station:wmo:42045:1,2006-12-03T02:30:00Z,26.2168,-96.4998,2.0,144.3159795,9.566049341,-99999.0,'11133222,11111222,99999999' 
TABS,ioos:station:wmo:42045:1,2006-12-03T03:00:00Z,26.2168,-96.4998,2.0,116.104793,6.681586638,-99999.0,'11133222,11111222,99999999' 
TABS,ioos:station:wmo:42045:1,2006-12-03T03:30:00Z,26.2168,-96.4998,2.0,145.8094149,8.25702731,-99999.0,'11133222,11111222,99999999' 
TABS,ioos:station:wmo:42045:1,2006-12-03T04:00:00Z,26.2168,-96.4998,2.0,210.0984686,11.24644388,-99999.0,'11111222,11111222,99999999' 
TABS,ioos:station:wmo:42045:1,2006-12-03T04:30:00Z,26.2168,-96.4998,2.0,177.9777302,9.636000208,-99999.0,'11133222,11111222,99999999' 
TABS,ioos:station:wmo:42045:1,2006-12-03T05:00:00Z,26.2168,-96.4998,2.0,204.2120779,11.87458631,-99999.0,'11111222,11111222,99999999' 
TABS,ioos:station:wmo:42045:1,2006-12-03T05:30:00Z,26.2168,-96.4998,2.0,152.1128279,2.907662291,-99999.0,'11133222,11111222,99999999' 
TABS,ioos:station:wmo:42045:1,2006-12-03T06:00:00Z,26.2168,-96.4998,2.0,187.1385888,15.44976699,-99999.0,'11111222,11111222,99999999' 
TABS,ioos:station:wmo:42045:1,2006-12-03T06:30:00Z,26.2168,-96.4998,2.0,138.5056141,7.516468586,-99999.0,'11133222,11111222,99999999' 
TABS,ioos:station:wmo:42045:1,2006-12-03T07:00:00Z,26.2168,-96.4998,2.0,310.7036361,6.700992464,-99999.0,'11133222,11111222,99999999' 
TABS,ioos:station:wmo:42045:1,2006-12-03T07:30:00Z,26.2168,-96.4998,2.0,297.8162079,5.121816084,-99999.0,'11133222,11111222,99999999' 
TABS,ioos:station:wmo:42045:1,2006-12-03T08:00:00Z,26.2168,-96.4998,2.0,223.2723536,5.864580121,-99999.0,'11133222,11111222,99999999' 
TABS,ioos:station:wmo:42045:1,2006-12-03T08:30:00Z,26.2168,-96.4998,2.0,271.2279969,2.800642783,-99999.0,'11133222,11111222,99999999' 
TABS,ioos:station:wmo:42045:1,2006-12-03T09:00:00Z,26.2168,-96.4998,2.0,310.0181999,14.16737802,-99999.0,'11111222,11111222,99999999' 
TABS,ioos:station:wmo:42045:1,2006-12-03T09:30:00Z,26.2168,-96.4998,2.0,271.5733614,4.371647287,-99999.0,'11133222,11111222,99999999' 
TABS,ioos:station:wmo:42045:1,2006-12-03T10:00:00Z,26.2168,-96.4998,2.0,305.4460484,5.793789779,-99999.0,'11133222,11111222,99999999' 
TABS,ioos:station:wmo:42045:1,2006-12-03T10:30:00Z,26.2168,-96.4998,2.0,292.3480047,12.46629456,-99999.0,'11111222,11111222,99999999' 
TABS,ioos:station:wmo:42045:1,2006-12-03T11:00:00Z,26.2168,-96.4998,2.0,253.1722533,10.70852464,-99999.0,'11111222,11111222,99999999' 
TABS,ioos:station:wmo:42045:1,2006-12-03T11:30:00Z,26.2168,-96.4998,2.0,262.9180236,19.62974274,-99999.0,'11111222,11111222,99999999' 
TABS,ioos:station:wmo:42045:1,2006-12-03T12:00:00Z,26.2168,-96.4998,2.0,317.4214034,7.197701022,-99999.0,'11133222,11111222,99999999' 
TABS,ioos:station:wmo:42045:1,2006-12-03T12:30:00Z,26.2168,-96.4998,2.0,2.099550743,6.824580573,-99999.0,'11133222,11111222,99999999' 
TABS,ioos:station:wmo:42045:1,2006-12-03T13:00:00Z,26.2168,-96.4998,2.0,309.0712688,25.46478745,-99999.0,'11111222,11111222,99999999' 
TABS,ioos:station:wmo:42045:1,2006-12-03T13:30:00Z,26.2168,-96.4998,2.0,318.4243936,32.20256201,-99999.0,'11111222,11111222,99999999' 
TABS,ioos:station:wmo:42045:1,2006-12-03T14:00:00Z,26.2168,-96.4998,2.0,320.7447467,33.34490066,-99999.0,'11111222,11111222,99999999' 
TABS,ioos:station:wmo:42045:1,2006-12-03T14:30:00Z,26.2168,-96.4998,2.0,322.4317063,39.69095111,-99999.0,'11111222,11111222,99999999' 
TABS,ioos:station:wmo:42045:1,2006-12-03T15:00:00Z,26.2168,-96.4998,2.0,339.4989687,34.29190138,-99999.0,'11111222,11111222,99999999' 
TABS,ioos:station:wmo:42045:1,2006-12-03T15:30:00Z,26.2168,-96.4998,2.0,353.9364132,44.87105972,-99999.0,'11111222,11111222,99999999' 
TABS,ioos:station:wmo:42045:1,2006-12-03T16:00:00Z,26.2168,-96.4998,2.0,342.8883741,36.84086997,-99999.0,'11111222,11111222,99999999' 
TABS,ioos:station:wmo:42045:1,2006-12-03T16:30:00Z,26.2168,-96.4998,2.0,342.8134013,34.55291883,-99999.0,'11111222,11111222,99999999' 
TABS,ioos:station:wmo:42045:1,2006-12-03T17:00:00Z,26.2168,-96.4998,2.0,43.2688668,22.00106361,-99999.0,'11111222,11111222,99999999' 
TABS,ioos:station:wmo:42045:1,2006-12-03T17:30:00Z,26.2168,-96.4998,2.0,353.07251,53.30920465,-99999.0,'11111222,11111222,99999999' 
TABS,ioos:station:wmo:42045:1,2006-12-03T18:00:00Z,26.2168,-96.4998,2.0,345.7570279,34.91323102,-99999.0,'11111222,11111222,99999999' 
TABS,ioos:station:wmo:42045:1,2006-12-03T18:30:00Z,26.2168,-96.4998,2.0,1.317691035,46.10218758,-99999.0,'11111222,11111222,99999999' 
TABS,ioos:station:wmo:42045:1,2006-12-03T19:00:00Z,26.2168,-96.4998,2.0,11.54703929,36.51909774,-99999.0,'11111222,11111222,99999999' 
TABS,ioos:station:wmo:42045:1,2006-12-03T19:30:00Z,26.2168,-96.4998,2.0,353.2911576,43.5683486,-99999.0,'11111222,11111222,99999999' 
TABS,ioos:station:wmo:42045:1,2006-12-03T20:00:00Z,26.2168,-96.4998,2.0,8.573931036,42.19149796,-99999.0,'11111222,11111222,99999999' 
TABS,ioos:station:wmo:42045:1,2006-12-03T20:30:00Z,26.2168,-96.4998,2.0,4.230986059,45.27337076,-99999.0,'11111222,11111222,99999999' 
TABS,ioos:station:wmo:42045:1,2006-12-03T21:00:00Z,26.2168,-96.4998,2.0,2.756170849,39.51570447,-99999.0,'11111222,11111222,99999999' 
TABS,ioos:station:wmo:42045:1,2006-12-03T21:30:00Z,26.2168,-96.4998,2.0,350.1481125,34.07247863,-99999.0,'11111222,11111222,99999999' 
TABS,ioos:station:wmo:42045:1,2006-12-03T22:00:00Z,26.2168,-96.4998,2.0,344.2095397,36.12321276,-99999.0,'11111222,11111222,99999999' 
TABS,ioos:station:wmo:42045:1,2006-12-03T22:30:00Z,26.2168,-96.4998,2.0,17.81949317,44.73616211,-99999.0,'11111222,11111222,99999999' 
TABS,ioos:station:wmo:42045:1,2006-12-03T23:00:00Z,26.2168,-96.4998,2.0,0.922546819,37.89490995,-99999.0,'11111222,11111222,99999999' 
TABS,ioos:station:wmo:42045:1,2006-12-03T23:30:00Z,26.2168,-96.4998,2.0,349.1329373,40.36386627,-99999.0,'11111222,11111222,99999999' 
TABS,ioos:station:wmo:42045:1,2006-12-04T00:00:00Z,26.2168,-96.4998,2.0,7.244889014,25.53384617,-99999.0,'11111222,11111222,99999999' 
TABS,ioos:station:wmo:42045:1,2006-12-04T00:30:00Z,26.2168,-96.4998,2.0,14.95419137,22.86434123,-99999.0,'11111222,11111222,99999999' 
TABS,ioos:station:wmo:42045:1,2006-12-04T01:00:00Z,26.2168,-96.4998,2.0,355.905903,18.76789812,-99999.0,'11111222,11111222,99999999' 
TABS,ioos:station:wmo:42045:1,2006-12-04T01:30:00Z,26.2168,-96.4998,2.0,3.99787543,33.42131805,-99999.0,'11111222,11111222,99999999' 
TABS,ioos:station:wmo:42045:1,2006-12-04T02:00:00Z,26.2168,-96.4998,2.0,358.2645099,13.86636218,-99999.0,'11111222,11111222,99999999' 
TABS,ioos:station:wmo:42045:1,2006-12-04T02:30:00Z,26.2168,-96.4998,2.0,3.765080887,17.81845392,-99999.0,'11111222,11111222,99999999' 
TABS,ioos:station:wmo:42045:1,2006-12-04T03:00:00Z,26.2168,-96.4998,2.0,339.8251507,14.78730537,-99999.0,'11111222,11111222,99999999' 
TABS,ioos:station:wmo:42045:1,2006-12-04T03:30:00Z,26.2168,-96.4998,2.0,3.961893824,19.10565361,-99999.0,'11111222,11111222,99999999' 
TABS,ioos:station:wmo:42045:1,2006-12-04T04:00:00Z,26.2168,-96.4998,2.0,359.8147883,24.72012945,-99999.0,'11111222,11144222,99999999' 
TABS,ioos:station:wmo:42045:1,2006-12-04T04:30:00Z,26.2168,-96.4998,2.0,38.9830526,5.26157771,-99999.0,'11133222,11111222,99999999' 
TABS,ioos:station:wmo:42045:1,2006-12-04T05:00:00Z,26.2168,-96.4998,2.0,8.311357849,14.32039804,-99999.0,'11111222,11111222,99999999' 
TABS,ioos:station:wmo:42045:1,2006-12-04T05:30:00Z,26.2168,-96.4998,2.0,353.8397683,12.67318429,-99999.0,'11111222,11111222,99999999' 
TABS,ioos:station:wmo:42045:1,2006-12-04T06:00:00Z,26.2168,-96.4998,2.0,124.7939664,4.03064511,-99999.0,'11133222,11111222,99999999' 
TABS,ioos:station:wmo:42045:1,2006-12-04T06:30:00Z,26.2168,-96.4998,2.0,35.27254943,15.56805062,-99999.0,'11111222,11111222,99999999' 
TABS,ioos:station:wmo:42045:1,2006-12-04T07:00:00Z,26.2168,-96.4998,2.0,336.5840243,19.70267241,-99999.0,'11111222,11111222,99999999' 
TABS,ioos:station:wmo:42045:1,2006-12-04T07:30:00Z,26.2168,-96.4998,2.0,20.83030365,7.339734328,-99999.0,'11133222,11111222,99999999' 
TABS,ioos:station:wmo:42045:1,2006-12-04T08:00:00Z,26.2168,-96.4998,2.0,333.5559707,16.97626578,-99999.0,'11111222,11111222,99999999' 
TABS,ioos:station:wmo:42045:1,2006-12-04T08:30:00Z,26.2168,-96.4998,2.0,356.2397085,17.07676784,-99999.0,'11111222,11111222,99999999' 
TABS,ioos:station:wmo:42045:1,2006-12-04T09:00:00Z,26.2168,-96.4998,2.0,1.091424132,19.95361872,-99999.0,'11111222,11111222,99999999' 
TABS,ioos:station:wmo:42045:1,2006-12-04T09:30:00Z,26.2168,-96.4998,2.0,27.24098647,22.37118012,-99999.0,'11111222,11111222,99999999' 
TABS,ioos:station:wmo:42045:1,2006-12-04T10:00:00Z,26.2168,-96.4998,2.0,339.4116253,22.63576153,-99999.0,'11111222,11111222,99999999' 
TABS,ioos:station:wmo:42045:1,2006-12-04T10:30:00Z,26.2168,-96.4998,2.0,28.90007968,19.42967318,-99999.0,'11111222,11111222,99999999' 
TABS,ioos:station:wmo:42045:1,2006-12-04T11:00:00Z,26.2168,-96.4998,2.0,342.6544444,12.47743964,-99999.0,'11111222,11111222,99999999' 
TABS,ioos:station:wmo:42045:1,2006-12-04T11:30:00Z,26.2168,-96.4998,2.0,9.763905159,28.1274119,-99999.0,'11111222,11111222,99999999' 
TABS,ioos:station:wmo:42045:1,2006-12-04T12:00:00Z,26.2168,-96.4998,2.0,7.333231587,29.38030122,-99999.0,'11111222,11111222,99999999' 
TABS,ioos:station:wmo:42045:1,2006-12-04T12:30:00Z,26.2168,-96.4998,2.0,320.9412507,12.77532387,-99999.0,'11111222,11111222,99999999' 
TABS,ioos:station:wmo:42045:1,2006-12-04T13:00:00Z,26.2168,-96.4998,2.0,0.360393876,22.27044005,-99999.0,'11111222,11111222,99999999' 
TABS,ioos:station:wmo:42045:1,2006-12-04T13:30:00Z,26.2168,-96.4998,2.0,327.3095958,27.8279949,-99999.0,'11111222,11111222,99999999' 
TABS,ioos:station:wmo:42045:1,2006-12-04T14:00:00Z,26.2168,-96.4998,2.0,2.846286307,47.32837838,-99999.0,'11111222,11111222,99999999' 
TABS,ioos:station:wmo:42045:1,2006-12-04T14:30:00Z,26.2168,-96.4998,2.0,0.371698217,40.10084288,-99999.0,'11111222,11111222,99999999' 
TABS,ioos:station:wmo:42045:1,2006-12-04T15:00:00Z,26.2168,-96.4998,2.0,348.3954752,28.58430513,-99999.0,'11111222,11111222,99999999' 
TABS,ioos:station:wmo:42045:1,2006-12-04T15:30:00Z,26.2168,-96.4998,2.0,346.2854306,32.85681817,-99999.0,'11111222,11111222,99999999' 
TABS,ioos:station:wmo:42045:1,2006-12-04T16:00:00Z,26.2168,-96.4998,2.0,8.354874704,23.81271089,-99999.0,'11111222,11111222,99999999' 
TABS,ioos:station:wmo:42045:1,2006-12-04T16:30:00Z,26.2168,-96.4998,2.0,356.5516894,42.22646208,-99999.0,'11111222,11111222,99999999' 
TABS,ioos:station:wmo:42045:1,2006-12-04T17:00:00Z,26.2168,-96.4998,2.0,346.7456919,30.39981908,-99999.0,'11111222,11111222,99999999' 
TABS,ioos:station:wmo:42045:1,2006-12-04T17:30:00Z,26.2168,-96.4998,2.0,2.158259159,32.13279011,-99999.0,'11111222,11111222,99999999' 